This is the latest recevied weather packets stored in our database for station/object EA4GEL-16. If no packets are shown the sender has not sent any weather packets the latest 10 day(s).
| Time | Temp. | Humidity | Pressure | Rain* | Wind** | Luminosity | Snow |
|---|---|---|---|---|---|---|---|
| 1787432640 | 26.67° C | 31% | 942.9 hPa | - | - | - | - |
| 1787431740 | 26.67° C | 30% | 942.9 hPa | - | - | - | - |
| 1787430840 | 27.78° C | 28% | 942.8 hPa | - | - | - | - |
| 1787429940 | 27.78° C | 27% | 942.6 hPa | - | - | - | - |
| 1787429040 | 28.33° C | 26% | 942.4 hPa | - | - | - | - |
| 1787428140 | 28.33° C | 27% | 942.2 hPa | - | - | - | - |
| 1787427240 | 28.89° C | 27% | 942 hPa | - | - | - | - |
| 1787426339 | 28.89° C | 26% | 941.9 hPa | - | - | - | - |
| 1787425439 | 28.89° C | 26% | 941.7 hPa | - | - | - | - |
| 1787424539 | 28.89° C | 27% | 941.6 hPa | - | - | - | - |
| 1787423639 | 29.44° C | 27% | 941.4 hPa | - | - | - | - |
| 1787422739 | 29.44° C | 26% | 941.3 hPa | - | - | - | - |
| 1787421839 | 29.44° C | 27% | 941.4 hPa | - | - | - | - |
| 1787420939 | 29.44° C | 27% | 941.4 hPa | - | - | - | - |
| 1787420038 | 29.44° C | 27% | 941.4 hPa | - | - | - | - |
| 1787419138 | 28.89° C | 28% | 941.5 hPa | - | - | - | - |
| 1787418238 | 29.44° C | 28% | 941.4 hPa | - | - | - | - |
| 1787417338 | 28.89° C | 28% | 941.3 hPa | - | - | - | - |
| 1787416438 | 28.89° C | 29% | 941.2 hPa | - | - | - | - |
| 1787415538 | 28.89° C | 29% | 941.4 hPa | - | - | - | - |
| 1787414637 | 28.89° C | 29% | 941.4 hPa | - | - | - | - |
| 1787413737 | 28.89° C | 29% | 941.5 hPa | - | - | - | - |
| 1787413585 | 29.44° C | 28% | 941.5 hPa | - | - | - | - |
| 1787412684 | 28.89° C | 30% | 941.5 hPa | - | - | - | - |
| 1787411784 | 29.44° C | 29% | 941.6 hPa | - | - | - | - |
* Rain since midnight (hover to see other rain measurements)
** Current wind speed in m/s (hover to see current wind gust speed)